{"data":{"norad_id":59088,"intl_designator":"2024-041Q","name":"STARLINK-31313","alt_names":[],"object_type":"PAYLOAD","status":"ACTIVE","operator":null,"country":"US","launch_date":"2024-02-29","launch_site_code":"AFETR","launch_vehicle":null,"mission":null,"orbit_class":"UNKNOWN","rcs_meters":null,"size_class":null,"mass_kg":null,"dimensions":null,"purposes":["comms"],"wikipedia_slug":null,"has_3d_model":false,"image_url":null,"decayed_at":null,"tle_current":{"epoch":"2026-05-24T17:43:12.849024Z","epoch_age_seconds":108044,"freshness":"FRESH","line1":"1 59088U 24041Q   26144.73834316  .00001547  00000+0  65718-4 0  9990","line2":"2 59088  43.0000 241.0950 0001360 256.8354 103.2345 15.27584642125902","mean_motion":15.27584642,"eccentricity":0.000136,"inclination_deg":43,"raan_deg":241.095,"arg_perigee_deg":256.8354,"mean_anomaly_deg":103.2345,"bstar":6.5718e-5,"rev_number":12590,"period_min":94.26646225735,"perigee_km":482.10207683821,"apogee_km":483.96831567559,"semimajor_km":6861.1721962569,"source":"CELESTRAK","updated_at":"2026-05-25T13:38:18.830613Z"}}}